User: anonymous   Login
Location: Castiglione Fibocchi
(43.5333°N, 11.7667°E)
Time: 11:22:05
(UTC+00:00)
Language:

Cosmos 1300 - Orbit

View from above orbital plane
View from above orbital plane
View from above satellite
View from above satellite

Ground track
Ground track

The orbit data is extracted from the following two-line orbital elements,

1 12785U 81082A   20305.22516230  .00000479  00000-0  22104-4 0  9996
2 12785  82.5002 294.1531 0000712  62.8803 307.5879 15.17802234138671
Epoch (UTC): 31 October 2020 05:24:14
Eccentricity: 0.0000712
inclination: 82.5002°
perigee height: 512 km
apogee height: 513 km
right ascension of ascending node: 294.1531°
argument of perigee: 62.8803°
revolutions per day: 15.17802234
mean anomaly at epoch: 307.5879°
orbit number at epoch: 13867

The dashed part of the orbit path shows where the satellite is in the earth's shadow,  

DLR